www.pogodaiklimat.ru

Погода и климат >> Архив погоды >> Индия >> Пенджаб >> Амритсар


ПОГОДА в Амритсаре

  • Прогноз погоды в Амритсаре
  • Монитор погоды в Амритсаре

АРХИВ ПОГОДЫ в Амритсаре

Время (UTC), дата Ветер
(напр.,м/с)
 
Видим.   Явления Облачность Т
(С)
Тd
(С)
f
(%)
Тe
(С)
Тes
(С)
Комфортность P
(гПа)
Po
(гПа)
Тmin
(С)
Tmax
(С)
R
(мм)
R24
(мм)
S
(см)
09 12.08 штиль 0 2000 м в посл. час гроза 8/5 900 м
[Sc diur, vesp Ac As]
+33.4 +27.7 72 +53 +59 опасность
перегрева
998.2 972.5
12 12.08 нст 1 2000 м мгла {гроза} 4/3 900 м
[Cu med, cong Ci fib]
+33.0 +27.5 73 +52 +55 опасность
перегрева
996.9 971.2 +34.2
15 12.08 штиль 0 2000 м дымка 4/4 900 м
[Sc diur, vesp]
+30.4 +28.2 88 +51 +51 опасность
перегрева
997.8 971.9
18 12.08 штиль 0 2000 м дымка 4/4 900 м
[Sc diur, vesp]
+29.8 +27.9 90 +49 +49 опасность
перегрева
998.2 972.2
21 12.08 штиль 0 2000 м дымка 4/4 900 м
[Sc diur, vesp]
+28.6 +26.6 89 +44 +44 опасность
перегрева
997.9 971.8
00 13.08 нст 1 2000 м гроза без осадков 9/5 900 м
[Cb calv As op]
+28.6 +26.9 91 +45 +45 опасность
перегрева
998.2 972.1
03 13.08 В 4 4000 м дымка {гроза} 9/4 750 м
[Sc diur, vesp Ac As]
+26.8 +25.1 90 +39 +40 очень
душно
1000.6 974.3 +26.1 +34.2
06 13.08 В 3 4000 м мгла {гроза} 8/1 900 м
[Sc diur, vesp Ac As Ci fib]
+31.2 +24.7 68 +44 +53 опасность
перегрева
1001.4 975.4
09 13.08 нст 1 2000 м мгла 9/5 1050 м
[Sc diur, vesp Ac As]
+33.2 +24.7 61 +46 +50 опасность
перегрева
999.4 973.6
12 13.08 штиль 0 2000 м мгла 6/4 1050 м
[Sc diur, vesp Ac trans]
+32.2 +26.7 73 +50 +51 опасность
перегрева
997.6 971.8 +34.0
15 13.08 штиль 0 2000 м дымка 6/4 1050 м
[Sc diur, vesp Ac As]
+30.6 +26.7 80 +48 +48 опасность
перегрева
999.5 973.5
18 13.08 нст 1 2000 м дымка 8/4 900 м
[Sc diur, vesp Ac As]
+29.6 +26.5 83 +45 +45 опасность
перегрева
1001.1 975.0
21 13.08 В 2 2000 м дымка 8/4 900 м
[Sc diur, vesp Ac As]
+28.8 +26.3 86 +44 +44 опасность
перегрева
999.7 973.6
00 14.08 В 2 2000 м дымка 9/5 900 м
[Sc diur, vesp Ac As]
+28.4 +25.9 86 +42 +42 опасность
перегрева
1000.3 974.1
03 14.08 В 4 2000 м дымка 9/5 1050 м
[Sc diur, vesp Ac As]
+27.6 +26.2 92 +42 +43 опасность
перегрева
1002.8 976.5 +27.2 +34.0
06 14.08 В 5 4000 м 8/5 900 м
[Sc diur, vesp Ac As]
+30.2 +25.7 77 +45 +48 опасность
перегрева
1003.1 977.0
09 14.08 нст 1 4000 м 8/5 900 м
[Sc diur, vesp Ac As]
+32.0 +25.5 69 +47 +52 опасность
перегрева
1001.5 975.6
12 14.08 нст 1 4000 м мгла 8/5 900 м
[Sc diur, vesp Ac As]
+32.0 +24.9 66 +45 +46 опасность
перегрева
999.8 973.9 +33.2
15 14.08 штиль 0 4000 м дымка 6/4 900 м
[Sc diur, vesp Ac As]
+30.2 +25.7 77 +45 +45 опасность
перегрева
1001.1 975.1
18 14.08 штиль 0 2000 м дымка 8/4 900 м
[Sc diur, vesp Ac As]
+29.0 +25.9 83 +43 +43 опасность
перегрева
1002.3 976.1
21 14.08 штиль 0 2000 м дымка 8/4 900 м
[Sc diur, vesp Ac As]
+28.4 +25.6 85 +42 +42 опасность
перегрева
1001.7 975.5
00 15.08 штиль 0 2000 м дымка 6/4 900 м
[Sc diur, vesp Ac As]
+28.0 +25.2 85 +41 +41 опасность
перегрева
1001.3 975.1
03 15.08 штиль 0 2000 м дымка 6/3 1050 м
[Sc diur, vesp Ac As]
+30.6 +26.4 78 +47 +51 опасность
перегрева
1002.1 976.1 +27.6 +33.2
06 15.08 штиль 0 4000 м мгла 6/5 900 м
[Sc diur, vesp Ac As]
+33.4 +25.9 65 +49 +60 опасность
перегрева
1001.7 975.9
09 15.08 нст 1 2000 м дымка {дождь} 10/5 900 м
[Cb cap As op]
+30.2 +26.3 80 +46 +48 опасность
перегрева
1000.6 974.6 0.0
12 15.08 нст 1 4000 м мгла {дождь} 9/4 900 м
[Sc diur, vesp Ac As]
+32.6 +25.6 67 +48 +48 опасность
перегрева
999.0 973.2 +34.7 0.0
15 15.08 штиль 0 2000 м дымка 9/4 900 м
[Sc diur, vesp Ac As]
+30.8 +26.6 78 +47 +47 опасность
перегрева
999.7 973.7 0.0
18 15.08 штиль 0 2000 м дымка 6/4 900 м
[Sc diur, vesp Ac As]
+29.2 +27.3 90 +47 +47 опасность
перегрева
1001.1 975.0 0.0
21 15.08 штиль 0 2000 м дымка 6/4 900 м
[Sc diur, vesp Ac As]
+28.0 +27.8 99 +46 +46 опасность
перегрева
1000.9 974.7 0.0
00 16.08 В 4 2000 м дымка 10/5 900 м
[Cb cap As op]
+26.4 +25.8 97 +39 +39 очень
душно
1001.0 974.6 0.0
03 16.08 В 3 4000 м дымка 8/4 1050 м
[Sc diur, vesp Ac As]
+29.6 +25.7 80 +44 +46 опасность
перегрева
1001.1 975.0 +25.4 +34.7 0.0
06 16.08 В 3 4000 м слаб. дождь 9/5 1050 м
[Sc diur, vesp Ac As]
+31.6 +24.8 67 +45 +48 опасность
перегрева
1001.0 975.1 0.0
09 16.08 штиль 0 2000 м гроза, ливневой дождь 10/5 900 м
[Cb cap As op]
+27.6 +25.9 90 +41 +43 опасность
перегрева
1000.0 973.8 24
12 16.08 штиль 0 2000 м гроза, ливневой дождь 10/5 900 м
[Cb cap As op]
+25.8 +24.4 92 +36 +36 очень
душно
998.2 971.9 +32.5 25
15 16.08 штиль 0 2000 м дымка {гроза, дождь} 10/5 900 м
[Cb cap Ac As]
+26.0 +24.6 92 +37 +37 очень
душно
999.3 972.9 25
18 16.08 штиль 0 2000 м дымка {гроза, дождь} 9/4 900 м
[Sc diur, vesp Ac As]
+26.8 +24.5 87 +38 +38 очень
душно
999.6 973.3 25
21 16.08 штиль 0 2000 м дымка 10/5 900 м
[Sc diur, vesp Ac As]
+27.0 +24.7 87 +38 +38 очень
душно
999.9 973.6 25
00 17.08 штиль 0 2000 м дымка 9/5 900 м
[Sc diur, vesp Ac As]
+27.0 +24.7 87 +38 +38 очень
душно
999.4 973.1 25
03 17.08 нст 1 2000 м слаб. дождь 10/5 900 м
[Cb cap As op]
+27.0 +26.2 95 +41 +41 опасность
перегрева
1001.4 975.1 +25.2 +32.5 26
06 17.08 С 5 2000 м дымка {дождь} 10/5 900 м
[Cb cap As op]
+27.0 +25.6 92 +40 +41 очень
душно
1002.5 976.1 2
09 17.08 СВ 5 4000 м слаб. дождь {гроза} 10/5 900 м
[Cb cap As op]
+25.0 +23.5 91 +34 +34 очень
душно
1001.4 974.9 16
12 17.08 штиль 0 2000 м слаб. дождь {гроза} 10/5 900 м
[Cb cap As op]
+24.0 +24.0 100 +33 +33 очень
душно
1000.4 973.8 +28.7 22
15 17.08 В 3 2000 м слаб. дождь {гроза} 10/5 900 м
[Cb cap As op]
+23.0 +23.0 100 +32 +32 очень
душно
1001.5 974.8 23
18 17.08 нст 2 2000 м дымка {дождь} 10/5 900 м
[Cb cap As op]
+23.0 +23.0 100 +32 +32 очень
душно
1001.8 975.1 23
21 17.08 штиль 0 2000 м дымка 10/5 900 м
[Cb cap As op]
+24.0 +23.4 96 +32 +32 очень
душно
1000.6 974.0 23
00 18.08 штиль 0 2000 м дымка 9/5 900 м
[Cb cap As trans]
+23.4 +22.2 93 +32 +32 очень
душно
1001.0 974.4 23
03 18.08 штиль 0 4000 м 3/0
[Ac trans]
+26.4 +25.0 92 +38 +45 очень
душно
1002.7 976.3 +22.4 +28.7 23
06 18.08 нст 1 4000 м 5/5 1200 м
[Sc diur, vesp]
+29.0 +23.8 74 +40 +51 опасность
солнечного
удара
1003.4 977.2
09 18.08 нст 1 4000 м 5/5 1050 м
[Sc diur, vesp]
+31.4 +22.7 60 +41 +50 опасность
перегрева
1002.0 976.0
12 18.08 штиль 0 4000 м мгла 4/4 1050 м
[Sc diur, vesp]
+31.4 +23.9 64 +43 +45 опасность
перегрева
1001.1 975.2 +32.8
15 18.08 штиль 0 2000 м дымка 5/1 1050 м
[Sc diur, vesp Ac trans]
+28.2 +25.9 87 +42 +42 опасность
перегрева
1003.1 976.8
18 18.08 штиль 0 2000 м дымка 5/1 1050 м
[Sc diur, vesp Ac trans]
+27.4 +25.7 90 +40 +40 очень
душно
1004.6 978.2
21 18.08 нст 1 2000 м дымка 6/3 900 м
[Sc diur, vesp Ac trans]
+26.8 +25.1 90 +39 +39 очень
душно
1004.6 978.2
00 19.08 штиль 0 2000 м гроза без осадков 10/5 900 м
[Cb cap As op]
+26.4 +24.7 90 +37 +37 очень
душно
1004.1 977.6
03 19.08 нст 1 2000 м дымка {гроза} 8/5 900 м
[Sc diur, vesp Ac As]
+26.4 +23.8 86 +36 +38 очень
душно
1005.6 979.1 +23.0 +32.8

 

Местоположение метеостанции Амритсар (Пенджаб, Индия): широта 31.63 долгота 74.87 высота над уровнем моря 234 м.

В архиве по умолчанию представлена погода в Амритсаре за последнюю неделю. Архивные данные за месяц целиком и за предыдущие месяцы, начиная с января 2011 года, Вы можете получить, выбрав интересующий диапазон дат из раскрывающегося списка и нажав кнопку "Ввод!".


*Определитесь, кто Вы:
робот инопланетянин человек

Внимание! Время в таблицах - всемирное. Для получения местного времени необходимо прибавить поправку, которая равна 5.5 ч.

Смотрите также архив погоды в соседних городах и на ближайших метеорологических станциях:

Погода в Лахор аэропорту (Пакистан) (46 км)
Погода в Лахоре (Пакистан) (52 км)
Погода в Наровале (Пакистан) (53 км)
Погода в Касуре (Пакистан) (70 км)
Погода в Гуджранвале (Пакистан) (91 км)
Погода в Сиялкоте (Пакистан) (102 км)
Погода в Джамму (Джамму и Кашмир, Индия) (116 км)
Погода в Гуджрате (Пакистан) (124 км)
Погода в Хафизабаде (Пакистан) (126 км)
Погода в Сиалкот аэропорту (Пакистан) (128 км)

Пояснения к столбцам:

Ветер - указаны скорость ветра в м/с - средняя за 10 мин, порывы в срок и между сроками (в фигурных скобках) и направление, откуда дует ветер: С - северный, СВ - северо-восточный, В - восточный, ЮВ - юго-восточный, Ю - южный, ЮЗ - юго-западный, З - западный, СЗ - северо-западный.
Видимость - горизонтальная дальность видимости в метрах или километрах. При видимости от 1 до 10 км при отсутствии осадков обычно наблюдается дымка, при ухудшении видимости до 1 км и менее - туман. В сухую погоду видимость может ухудшаться дымом, пылью или мглою.
Явления - указаны атмосферные явления, наблюдавшиеся в срок или в последний час перед сроком; фигурными скобками обозначены явления, наблюдавшиеся между сроками (за 1-3 часа до срока); квадратными скобками обозначены град или гололедные отложения с указанием их диаметра в мм.
Облачность - указаны через наклонную черту общая и нижняя облачность в баллах и высота нижней границы облаков в метрах; квадратными скобками обозначены формы облаков: Ci - перистые, Cs - перисто-слоистые, Cc - перисто-кучевые, Ac - высококучевые, As - высокослоистые, Sc - слоисто-кучевые, Ns - слоисто-дождевые, Cu - кучевые, Cb - кучево-дождевые. Подробнее классификацию облаков см. в Атласе облаков (PDF).
T - Температура воздуха - температура, измеренная на высоте 2 м над землей.
Td - Температура точки росы - температура, при понижении до которой содержащийся в воздухе водяной пар достигнет насыщения.
f - Относительная влажность воздуха - влажноcть воздуха, измеренная на высоте 2 м над землей.
Te - Эффективная температура - температура, которую ощущает одетый по сезону человек в тени. Характеристика душности погоды. При расчете учитывается влияние влажности воздуха и скорости ветра на теплоощущения человека.
Tes - Эффективная температура на солнце - температура, которую ощущает человек, с поправкой на солнечный нагрев. Характеристика знойности погоды. Зависит от высоты солнца над горизонтом, облачности и скорости ветра. Ночью, в пасмурную погоду, а также при ветре 12 м/с и более поправка равна нулю.
P - Атмосферное давление - приведенное к уровню моря атмосферное давление.
Po - Атмосферное давление - измеренное на уровне метеостанции атмосферное давление.
Tmin - Минимальная температура - минимум температуры воздуха на высоте 2 м над землей.
Tmax - Максимальная температура - максимум температуры воздуха на высоте 2 м над землей.
R - Количество осадков - Количество выпавших осадков за период времени, мм. При наведении курсора мыши на число - период времени, за который выпало указанное количество осадков.
R24 - Количество осадков - Количество выпавших осадков за 24 часа, мм.
S - Снежный покров - Высота снежного покрова, см. При наведении курсора мыши на число - состояние снежного покрова и степень покрытия местности в баллах.